www.pogodaiklimat.ru

Погода и климат >> Архив погоды >> Чехия >> Замок Namest nad Oslav


ПОГОДА в Замке Namest nad Oslav

  • Прогноз погоды в Замке Namest nad Oslav
  • Монитор погоды в Замке Namest nad Oslav

АРХИВ ПОГОДЫ в Замке Namest nad Oslav

Время (UTC), дата Ветер
(напр.,м/с)
 
Видим.   Явления Облачность Т
(С)
Тd
(С)
f
(%)
Тe
(С)
Тes
(С)
Комфортность P
(гПа)
Po
(гПа)
Тmin
(С)
Tmax
(С)
R
(мм)
R24
(мм)
S
(см)
19 16.09 СЗ 4 30 км 9/0
[Ac trans]
+17.9 +9.9 59 +18 +18 1015.7 961.1
20 16.09 СЗ 2 30 км 10/0
[As op]
+17.5 +10.0 61 +18 +18 1015.8 961.2
21 16.09 З 2 30 км 10/0
[As op]
+16.5 +10.2 66 +17 +17 1015.8 961.0
22 16.09 СЗ 2 30 км 10/0
[Ac As]
+16.5 +10.2 66 +17 +17 1015.5 960.7
23 16.09 СЗ 4 20 км 10/0
[As op]
+15.3 +10.8 75 +14 +14 1015.7 960.7
00 17.09 СЗ 2 20 км 10/5 1410 м
[Sc As op]
+14.8 +11.3 80 +14 +14 1015.5 960.4
01 17.09 З 3 20 км 10/3 1110 м
[Sc As op]
+14.3 +11.9 85 +13 +13 1015.6 960.4
02 17.09 СЗ 3 10 км в посл. час дождь 10/5 900 м
[Sc As op]
+14.0 +12.2 89 +13 +13 1015.2 960.0
03 17.09 СЗ 3 20 км {дождь} 10/10 840 м
[Sc]
+13.9 +12.2 89 +13 +13 1015.0 959.8
04 17.09 СЗ 5 20 км слаб. дождь 10/10 400 м
[Sc]
+12.2 +11.2 94 +10 +10 1015.6 960.0
05 17.09 СЗ 7 20 км в посл. час дождь 10/10 240 м
[Sc]
+11.5 +9.1 85 +8 +8 1016.4 960.6
06 17.09 СЗ 7 15 км {дождь} 9/9 270 м
[Sc]
+11.3 +8.1 81 +8 +8 1016.5 960.6 +11.2 0.0
07 17.09 СЗ 5 15 км 8/8 400 м
[Sc Ci fib]
+11.6 +7.6 76 +9 +9 1017.1 961.3
08 17.09 СЗ 5 20 км 9/9 500 м
[Cu Sc]
+12.5 +7.2 70 +10 +11 1017.0 961.3
09 17.09 СЗ 5 20 км 4/4 930 м
[Cu Sc Ci fib]
+13.6 +6.7 63 +12 +14 1016.4 961.0
10 17.09 СЗ 5 30 км 3/3 800 м
[Sc Ci fib]
+14.8 +7.8 63 +13 +17 1016.0 960.8
11 17.09 З 7 25 км 9/9 900 м
[Sc Ac trans Ci fib]
+15.4 +8.3 63 +14 +14 1015.4 960.4
12 17.09 З 8
{12}
25 км 9/9 960 м
[Sc Ac trans Ci fib]
+16.5 +8.6 60 +15 +15 1014.4 959.6
13 17.09 З 11
{13}
30 км 6/6 930 м
[Sc Ci fib]
+16.6 +8.0 57 +15 +15 1013.9 959.2
14 17.09 З 9
{13}
25 км 3/3 960 м
[Sc Ci fib]
+16.5 +8.3 58 +15 +15 1013.6 958.9
15 17.09 З 9
{14}
30 км 3/1 1110 м
[Cu hum Ci fib]
+16.2 +6.7 53 +15 +15 1013.2 958.4
16 17.09 З 7
{12}
30 км 5/1 1230 м
[Cu hum Ci fib]
+16.2 +7.1 55 +15 +15 1013.0 958.2
17 17.09 З 5
{13}
30 км 6/1 1350 м
[Cu hum Ci fib]
+14.5 +6.7 59 +13 +13 1013.4 958.3
18 17.09 СЗ 5
{14}
25 км 4/1 1500 м
[Sc Ci fib]
+13.3 +6.4 63 +11 +11 1014.5 959.1 +17.1
19 17.09 СЗ 5 25 км 8/8 1500 м
[Sc]
+13.0 +5.8 62 +11 +11 1015.2 959.7
20 17.09 З 5 25 км 8/8 1500 м
[Sc]
+12.0 +5.6 65 +10 +10 1015.7 960.0
21 17.09 СЗ 9
{11}
30 км 3/0 2000 м
[Ac trans]
+11.7 +5.0 63 +8 +8 1016.5 960.7
22 17.09 СЗ 10-15
{15}
25 км 9/9 1350 м
[Sc]
+11.2 +3.4 59 +7 +7 1016.9 960.9
23 17.09 СЗ 8
{13}
25 км 1/1 1500 м
[Sc]
+10.6 +4.1 64 +7 +7 1017.2 961.1
00 18.09 СЗ 8
{15}
25 км 1/1 1140 м
[Sc]
+9.6 +3.7 67 +6 +6 1018.0 961.7
01 18.09 З 7
{11}
25 км 1/1 1500 м
[Sc]
+8.9 +3.5 69 +5 +5 1018.8 962.3
02 18.09 З 5
{11}
25 км 1/1 720 м
[Sc]
+7.5 +3.5 76 +4 +4 1019.6 962.8
03 18.09 З 9
{12}
25 км 9/9 1140 м
[Sc]
+8.1 +2.2 66 +3 +3 1020.2 963.4
04 18.09 З 11
{14}
25 км 9/9 1020 м
[Sc]
+8.5 +2.1 64 +4 +4 1020.4 963.7
05 18.09 СЗ 8
{15}
25 км 9/9 900 м
[Sc]
+8.3 +1.9 64 +4 +4 1021.6 964.8
06 18.09 З 8-13
{15}
25 км 3/3 840 м
[Sc]
+7.8 +2.0 67 +3 +3 1022.4 965.5 +7.5
07 18.09 СЗ 10
{14}
30 км 3/3 840 м
[Sc]
+8.4 +1.6 62 +4 +4 1023.1 966.2
08 18.09 СЗ 8
{13}
30 км 1/1 1000 м
[Cu hum]
+9.2 +1.3 58 +5 +6 1023.3 966.6
09 18.09 СЗ 7
{14}
30 км 1/1 1200 м
[Cu hum]
+10.5 +1.3 53 +7 +9 1023.2 966.7
10 18.09 З 8
{11}
30 км 1/1 1410 м
[Cu hum Ci fib]
+11.5 -0.9 42 +9 +10 1023.3 967.0
11 18.09 СЗ 7
{12}
30 км 1/1 1500 м
[Cu hum Ci fib]
+12.7 +0.4 43 +10 +13 1023.0 967.0
12 18.09 СЗ 7
{14}
30 км 1/1 1500 м
[Cu hum Ci fib]
+13.2 +0.2 41 +11 +13 1022.7 966.8
13 18.09 З 7
{11}
30 км 1/1 1500 м
[Cu hum Ci fib]
+13.5 +0.2 40 +11 +13 1022.5 966.6
14 18.09 СЗ 8
{11}
30 км 1/1 1500 м
[Cu hum Ci fib]
+13.7 -0.1 39 +11 +12 1022.2 966.4
15 18.09 СЗ 7
{12}
30 км 3/3 1500 м
[Cu hum]
+13.5 +1.0 42 +11 +12 1022.2 966.4
16 18.09 СЗ 6 30 км 1/1 1500 м
[Cu hum]
+12.9 +0.8 44 +11 +11 1022.2 966.2
17 18.09 СЗ 5 30 км 1/1 1500 м
[Sc diur, vesp]
+11.3 +1.2 50 +9 +9 1022.7 966.4
18 18.09 СЗ 4
{12}
30 км 1/1 1500 м
[Sc diur, vesp]
+10.7 +1.2 52 +9 +9 1023.2 966.8 +14.1
19 18.09 З 3 30 км ясно +9.6 +1.5 57 +8 +8 1024.2 967.5
20 18.09 З 4 30 км ясно +8.9 +1.5 60 +6 +6 1024.4 967.6
21 18.09 З 4 30 км ясно +7.5 +1.6 66 +4 +4 1024.9 967.8
22 18.09 З 5 30 км 1/0
[Ac trans]
+7.3 +1.8 68 +4 +4 1025.1 967.9
23 18.09 З 4 30 км 1/0
[Ac trans]
+7.0 +1.8 69 +4 +4 1025.2 967.9
00 19.09 СЗ 5 30 км 4/0 2000 м
[Ac trans]
+6.4 +1.7 72 +2 +2 1025.3 967.9
01 19.09 СЗ 5 30 км 5/0
[Ac trans]
+6.8 +1.7 70 +3 +3 1025.1 967.8
02 19.09 СЗ 5 30 км 3/0
[Ac trans]
+6.9 +2.0 71 +3 +3 1025.1 967.8
03 19.09 СЗ 5 30 км 3/0 2000 м
[Ac trans]
+6.1 +2.0 75 +2 +2 1025.4 968.0
04 19.09 СЗ 6 30 км 1/0
[Ac trans]
+5.5 +2.2 79 +1 +1 1025.7 968.1
05 19.09 З 5 30 км 1/0
[Ac trans Ci ing]
+4.8 +2.3 84 0 0 1026.2 968.5
06 19.09 З 5 20 км 3/0 2000 м
[Ac trans Ci fib]
+6.0 +3.3 83 +2 +2 1026.6 969.1 +4.7
07 19.09 З 5 20 км 6/1 540 м
[Cu hum Ci]
+7.5 +3.6 76 +4 +5 1027.0 969.8
08 19.09 СЗ 5 25 км 3/1 750 м
[Cu hum Ci fib]
+9.4 +3.0 64 +6 +9 1026.8 969.9
09 19.09 СЗ 7
{12}
25 км 6/4 870 м
[Cu hum Ci]
+10.1 +2.5 59 +7 +8 1026.8 970.1
10 19.09 СЗ 5
{11}
25 км 8/8 1000 м
[Cu hum Ci fib]
+10.6 +2.2 56 +8 +9 1026.7 970.1
11 19.09 СЗ 5 30 км 9/9 1110 м
[Cu hum Ci fib]
+10.7 +0.7 50 +8 +9 1026.7 970.1
12 19.09 СЗ 7
{12}
25 км 9/9 1320 м
[Sc]
+10.9 +1.5 52 +8 +8 1026.9 970.3
13 19.09 СЗ 7
{12}
30 км 8/8 1470 м
[Cu Sc]
+11.6 +0.1 45 +9 +9 1026.7 970.2
14 19.09 СЗ 7
{11}
25 км 9/9 1500 м
[Sc Ci fib]
+11.3 -0.2 45 +8 +9 1026.6 970.1
15 19.09 СЗ 7
{12}
30 км 8/8 1350 м
[Sc Ci fib]
+11.6 0.0 45 +9 +9 1026.7 970.2
16 19.09 СЗ 6 30 км 8/1 1500 м
[Sc Ci]
+11.0 -1.0 43 +8 +9 1026.6 970.0
17 19.09 СЗ 5 25 км 4/0
[Ac trans Ci fib]
+9.8 -0.3 49 +7 +7 1027.2 970.4
18 19.09 СЗ 4
{12}
25 км 3/0
[Ci sp]
+8.5 +0.4 57 +6 +6 1028.3 971.2 +12.4
19 19.09 СЗ 4 25 км 1/0
[Ci fib]
+8.3 +1.0 60 +5 +5 1028.6 971.4
20 19.09 СЗ 3 20 км 8/0
[Ci]
+7.5 +1.4 65 +5 +5 1029.1 971.7
21 19.09 З 2 20 км 9/0
[Cs]
+6.6 +1.4 69 +5 +5 1029.6 972.0
22 19.09 СЗ 4 25 км 3/0
[Ci fib]
+7.3 +1.5 67 +4 +4 1029.6 972.2
23 19.09 СЗ 4 20 км 3/0
[Ci fib]
+6.4 +1.4 70 +3 +3 1029.6 972.0
00 20.09 СЗ 2 20 км 3/0
[Ci fib]
+5.8 +1.3 73 +4 +4 1029.6 971.9
01 20.09 СЗ 3 20 км 3/0
[Ci fib]
+5.1 +1.3 76 +2 +2 1029.5 971.6
02 20.09 З 3 20 км 1/0
[Ci fib]
+4.0 +1.1 81 0 0 1029.7 971.6
03 20.09 СЗ 4 20 км 1/0 2000 м
[Ac trans Ci fib]
+4.6 +1.1 78 +1 +1 1029.7 971.7
04 20.09 СЗ 4 20 км 1/0
[Ci fib]
+4.1 +1.2 81 -0 -0 1029.7 971.6
05 20.09 СЗ 4 20 км 1/1 1500 м
[Sc Ci fib]
+3.6 +0.9 82 -1 -1 1029.8 971.6
06 20.09 СЗ 3 30 км 1/0
[Ci fib]
+4.8 +1.2 77 +1 +2 1029.9 971.9 +3.4
07 20.09 СЗ 3 30 км 4/0 2000 м
[Ac trans Ci fib]
+6.8 +2.3 73 +4 +6 1029.8 972.3
08 20.09 С 3 30 км 6/1 720 м
[Cu hum Ac trans Ci fib]
+9.5 +3.1 64 +7 +10 1029.8 972.8
09 20.09 З 2 30 км 5/3 1080 м
[Cu hum Ci fib]
+11.4 +1.5 51 +11 +15 1029.2 972.6
10 20.09 З 2 30 км 4/4 1320 м
[Cu hum Ci fib]
+12.3 +1.4 47 +12 +17 1028.5 972.1
11 20.09 С 3 30 км 4/4 1500 м
[Cu hum]
+13.1 +1.5 45 +12 +17 1027.8 971.6
12 20.09 СЗ 3 30 км 4/4 1500 м
[Cu hum]
+13.1 +0.7 43 +12 +16 1027.7 971.5
13 20.09 СЗ 4 30 км 4/4 1500 м
[Cu hum Ci fib]
+13.5 -0.5 38 +12 +15 1027.3 971.2
14 20.09 СЗ 5 30 км 5/3 1500 м
[Cu hum Ci fib]
+14.3 -0.3 37 +13 +14 1026.6 970.7
15 20.09 СЗ 4 30 км 6/1 1500 м
[Cu hum Ci fib]
+13.4 +0.3 41 +12 +13 1026.6 970.5
16 20.09 СЗ 3 30 км 6/1 1500 м
[Sc Ci fib]
+13.3 +0.8 42 +12 +13 1026.7 970.6
17 20.09 СЗ 2 25 км 8/0
[Ci fib]
+11.8 +1.1 48 +11 +11 1026.9 970.5
18 20.09 С 3 20 км 6/0
[Ci fib]
+11.1 +0.8 49 +10 +10 1027.7 971.1 +14.8
19 20.09 С 2 20 км 6/0
[Ci fib]
+10.0 +1.3 55 +9 +9 1027.9 971.1
20 20.09 С 2 20 км 4/0
[Ci fib]
+10.4 +1.2 53 +9 +9 1028.1 971.3
21 20.09 С 2 20 км 4/0
[Ci fib]
+9.2 +1.2 57 +8 +8 1028.2 971.2
22 20.09 СЗ 2 20 км 3/0
[Ci fib]
+7.6 +1.5 65 +6 +6 1028.3 971.0
23 20.09 С 2 20 км ясно +8.0 +1.2 62 +6 +6 1028.1 970.9
00 21.09 С 3 20 км ясно +7.2 +1.6 68 +5 +5 1028.2 970.8
01 21.09 СЗ 2 20 км ясно +6.4 +1.5 71 +4 +4 1028.1 970.6
02 21.09 С 1 20 км ясно +6.5 +1.4 70 +6 +6 1027.9 970.4
03 21.09 С 3 20 км ясно +4.8 +1.3 78 +1 +1 1028.0 970.1
04 21.09 С 4 20 км ясно +4.9 +1.4 78 +1 +1 1027.7 969.9
05 21.09 С 3 20 км ясно +6.1 +1.0 70 +3 +3 1027.4 969.8
06 21.09 С 2 25 км ясно +7.0 +1.9 70 +5 +6 1027.1 969.7 +4.1
07 21.09 С 2 25 км ясно +8.6 +3.1 68 +7 +9 1027.1 970.1
08 21.09 ЮВ 4 30 км ясно +11.8 +2.5 53 +10 +13 1026.7 970.3
09 21.09 В 4 30 км ясно +12.9 +2.7 50 +11 +16 1026.4 970.2
10 21.09 ЮВ 4 30 км ясно +14.3 +2.6 45 +13 +19 1025.5 969.6
11 21.09 ЮВ 5 30 км ясно +15.0 +3.9 47 +14 +19 1024.9 969.2
12 21.09 ЮВ 5 30 км ясно +15.9 +3.7 44 +15 +19 1024.1 968.6
13 21.09 ЮВ 5 30 км ясно +16.8 +3.4 41 +16 +20 1023.6 968.3
14 21.09 ЮВ 5 30 км ясно +17.0 +3.4 40 +16 +19 1022.9 967.7
15 21.09 ЮВ 5 30 км ясно +16.6 +3.9 43 +16 +17 1022.4 967.2
16 21.09 В 4 30 км 1/0
[Ci fib]
+15.9 +3.9 45 +15 +16 1022.3 966.9
17 21.09 В 3 30 км 1/0
[Ci fib]
+14.2 +3.3 48 +13 +13 1022.6 966.9
18 21.09 ЮВ 4 30 км ясно +12.7 +4.0 55 +11 +11 1022.7 966.7 +17.2
19 21.09 В 3 30 км ясно +11.8 +3.6 57 +10 +10 1022.7 966.5
20 21.09 В 3 30 км ясно +11.2 +3.2 58 +10 +10 1022.7 966.4
21 21.09 ЮВ 3 30 км ясно +10.5 +3.4 61 +9 +9 1022.5 966.1
22 21.09 В 3 30 км ясно +10.3 +3.4 62 +8 +8 1021.9 965.5
23 21.09 В 3 30 км ясно +9.8 +3.2 63 +8 +8 1021.8 965.3
00 22.09 В 3 30 км ясно +9.2 +3.0 65 +7 +7 1021.4 964.8
01 22.09 В 3 30 км ясно +8.9 +3.0 66 +7 +7 1020.9 964.3
02 22.09 В 3 30 км ясно +8.6 +2.8 67 +6 +6 1020.8 964.1
03 22.09 В 3 30 км ясно +8.4 +2.6 67 +6 +6 1020.2 963.5
04 22.09 В 2 30 км ясно +8.1 +2.5 68 +6 +6 1019.9 963.2
05 22.09 В 5 30 км ясно +7.9 +2.2 67 +4 +4 1019.7 962.9
06 22.09 В 6 30 км ясно +9.0 +2.5 64 +5 +6 1019.4 962.9 +7.9
07 22.09 В 8 30 км 1/0
[Ci fib]
+10.6 +2.5 57 +7 +8 1019.1 962.9
08 22.09 В 7 30 км 1/0
[Ci fib]
+12.1 +3.1 54 +9 +11 1018.6 962.7
09 22.09 ЮВ 8 30 км 1/0
[Ci fib]
+14.2 +3.2 47 +12 +13 1017.5 962.1
10 22.09 н/о
11 22.09 ЮВ 8
{12}
30 км 1/0
[Ci fib]
+16.4 +3.3 42 +15 +17 1016.3 961.3
12 22.09 ЮВ 9
{13}
30 км 3/0
[Ci fib]
+17.5 +2.7 37 +16 +17 1014.8 960.1
13 22.09 ЮВ 8
{11}
30 км 3/0
[Ci fib]
+17.9 +3.8 39 +17 +18 1014.1 959.5
14 22.09 ЮВ 9
{11}
30 км 3/0
[Ci fib]
+18.1 +3.7 38 +17 +18 1013.3 958.8
15 22.09 ЮВ 7
{11}
30 км 4/0
[Ci fib]
+17.1 +3.4 40 +16 +17 1013.5 958.8
16 22.09 В 5 30 км 6/0
[Ci]
+16.2 +3.3 42 +15 +16 1013.4 958.6
17 22.09 В 4 30 км 8/0
[Cs]
+15.6 +3.4 44 +15 +15 1013.2 958.3
18 22.09 В 3
{11}
30 км 8/0
[Cs]
+14.6 +3.2 46 +14 +14 1013.4 958.3 +18.3
19 22.09 В 3 30 км 9/0
[Cs]
+14.1 +3.0 47 +13 +13 1013.3 958.1
20 22.09 В 4 30 км 9/0
[Cs]
+13.6 +3.2 49 +12 +12 1013.2 957.9
21 22.09 В 3 30 км 9/0
[Ac trans Ci fib]
+13.3 +3.1 50 +12 +12 1013.0 957.6
22 22.09 В 3 30 км 9/0
[Ac trans Ci fib]
+12.9 +3.0 51 +12 +12 1012.8 957.4
23 22.09 В 3 30 км 9/0
[Ac trans]
+12.6 +2.9 52 +11 +11 1012.7 957.2
00 23.09 В 3 30 км 9/0
[Ac trans]
+12.6 +3.0 52 +11 +11 1012.6 957.1
01 23.09 В 3 30 км 9/0
[Ac trans]
+12.3 +3.0 53 +11 +11 1012.7 957.2
02 23.09 В 3 30 км 9/0
[Ac trans]
+12.1 +3.1 54 +11 +11 1012.9 957.3
03 23.09 В 3 30 км 9/0
[Ac trans]
+11.9 +3.7 57 +11 +11 1012.7 957.1
04 23.09 В 2 30 км 9/0
[Ac trans]
+11.8 +4.0 59 +11 +11 1012.8 957.2
05 23.09 В 2 30 км 9/0
[Ac trans]
+11.6 +4.1 60 +11 +11 1013.1 957.4
06 23.09 В 3 30 км 9/0
[Ac trans Ci fib]
+11.6 +4.3 61 +10 +10 1013.4 957.7 +11.2
07 23.09 В 3 30 км 6/0
[Ac trans Ci fib]
+12.3 +5.1 61 +11 +12 1013.4 957.9
08 23.09 ЮВ 4 30 км 8/0
[Ac trans Ci fib]
+14.3 +5.2 54 +13 +15 1013.5 958.3
09 23.09 ЮВ 4 30 км 9/3 630 м
[Sc Ac trans]
+15.3 +7.0 58 +14 +16 1013.6 958.6
10 23.09 ЮВ 4 30 км 6/3 700 м
[Cu med, cong Ci fib]
+16.9 +8.9 59 +16 +20 1013.1 958.5
11 23.09 Ю 5 30 км 5/0
[Ci fib]
+17.0 +8.7 58 +16 +20 1012.9 958.3
12 23.09 ЮВ 3 30 км 8/3 1000 м
[Sc Ac trans Ci fib]
+17.3 +9.2 59 +17 +20 1012.8 958.3
13 23.09 В 2 20 км 8/3 1050 м
[Sc Ac trans Ci fib]
+17.3 +9.3 59 +18 +20 1012.8 958.3
14 23.09 ЮВ 2 30 км 8/3 1050 м
[Sc Ac trans Ci fib]
+17.5 +9.5 59 +18 +20 1012.9 958.4
15 23.09 ЮЗ 2 30 км 9/3 1000 м
[Sc Ac As]
+16.9 +10.2 65 +17 +18 1013.0 958.4
16 23.09 ЮЗ 2 30 км 9/0
[Ac As]
+16.5 +9.9 65 +17 +17 1013.4 958.7
17 23.09 З 1 30 км 9/0
[Ac As]
+16.2 +9.6 65 +17 +17 1013.7 958.9
18 23.09 СЗ 1 25 км 10/0
[Ac As]
+16.3 +9.4 64 +17 +17 1014.1 959.3 +17.7
19 23.09 СЗ 2 25 км 9/0
[Ac As]
+15.8 +9.4 66 +16 +16 1014.5 959.6

 

Местоположение метеостанции Замок Namest nad Oslav (Чехия): широта 49.17 долгота 16.12 высота над уровнем моря 479 м.

В архиве по умолчанию представлена погода в Замке Namest nad Oslav за последнюю неделю. Архивные данные за месяц целиком и за предыдущие месяцы, начиная с января 2011 года, Вы можете получить, выбрав интересующий диапазон дат из раскрывающегося списка и нажав кнопку "Ввод!".


*Определитесь, кто Вы:
робот инопланетянин человек

Внимание! Время в таблицах - всемирное. Для получения местного времени необходимо прибавить поправку, которая равна 1 ч.

Смотрите также архив погоды в соседних городах и на ближайших метеорологических станциях:

Погода на АЭС Дукованы (Чехия) (8 км)
Погода в Кучарловице (Чехия) (32 км)
Погода в Брно (Чехия) (42 км)
Погода в Реце (Австрия) (46 км)
Погода в Церкви Мыслова (Чехия) (47 км)
Погода в Пршибиславе (Чехия) (52 км)
Погода в Свраточе (Чехия) (63 км)
Погода в Пойсдорфе (Австрия) (67 км)
Погода в Лейзер Берге (Австрия) (69 км)
Погода в Гарс-ам-Кампе (Австрия) (73 км)

Пояснения к столбцам:

Ветер - указаны скорость ветра в м/с - средняя за 10 мин, порывы в срок и между сроками (в фигурных скобках) и направление, откуда дует ветер: С - северный, СВ - северо-восточный, В - восточный, ЮВ - юго-восточный, Ю - южный, ЮЗ - юго-западный, З - западный, СЗ - северо-западный.
Видимость - горизонтальная дальность видимости в метрах или километрах. При видимости от 1 до 10 км при отсутствии осадков обычно наблюдается дымка, при ухудшении видимости до 1 км и менее - туман. В сухую погоду видимость может ухудшаться дымом, пылью или мглою.
Явления - указаны атмосферные явления, наблюдавшиеся в срок или в последний час перед сроком; фигурными скобками обозначены явления, наблюдавшиеся между сроками (за 1-3 часа до срока); квадратными скобками обозначены град или гололедные отложения с указанием их диаметра в мм.
Облачность - указаны через наклонную черту общая и нижняя облачность в баллах и высота нижней границы облаков в метрах; квадратными скобками обозначены формы облаков: Ci - перистые, Cs - перисто-слоистые, Cc - перисто-кучевые, Ac - высококучевые, As - высокослоистые, Sc - слоисто-кучевые, Ns - слоисто-дождевые, Cu - кучевые, Cb - кучево-дождевые. Подробнее классификацию облаков см. в Атласе облаков (PDF).
T - Температура воздуха - температура, измеренная на высоте 2 м над землей.
Td - Температура точки росы - температура, при понижении до которой содержащийся в воздухе водяной пар достигнет насыщения.
f - Относительная влажность воздуха - влажноcть воздуха, измеренная на высоте 2 м над землей.
Te - Эффективная температура - температура, которую ощущает одетый по сезону человек в тени. Характеристика душности погоды. При расчете учитывается влияние влажности воздуха и скорости ветра на теплоощущения человека.
Tes - Эффективная температура на солнце - температура, которую ощущает человек, с поправкой на солнечный нагрев. Характеристика знойности погоды. Зависит от высоты солнца над горизонтом, облачности и скорости ветра. Ночью, в пасмурную погоду, а также при ветре 12 м/с и более поправка равна нулю.
P - Атмосферное давление - приведенное к уровню моря атмосферное давление.
Po - Атмосферное давление - измеренное на уровне метеостанции атмосферное давление.
Tmin - Минимальная температура - минимум температуры воздуха на высоте 2 м над землей.
Tmax - Максимальная температура - максимум температуры воздуха на высоте 2 м над землей.
R - Количество осадков - Количество выпавших осадков за период времени, мм. При наведении курсора мыши на число - период времени, за который выпало указанное количество осадков.
R24 - Количество осадков - Количество выпавших осадков за 24 часа, мм.
S - Снежный покров - Высота снежного покрова, см. При наведении курсора мыши на число - состояние снежного покрова и степень покрытия местности в баллах.